User: anonymous
Location: Unspecified
(0.0000°N, 0.0000°E)
Time: 21:52:56
(UTC+00:00)
Language:

RAX-2 - Orbit

View from above orbital plane
View from above orbital plane
View from above satellite
View from above satellite

Ground track
Ground track

The orbit data is extracted from the following two-line orbital elements,

1 37853U 11061D   14105.98970498  .00004822  00000-0  33969-3 0  7784
2 37853 101.7165 106.0111 0218850 236.4883 185.2416 14.88632049133400
Epoch (UTC): 15 April 2014 23:45:10
Eccentricity: 0.0218850
inclination: 101.7165°
perigee height: 449 km
apogee height: 755 km
right ascension of ascending node: 106.0111°
argument of perigee: 236.4883°
revolutions per day: 14.88632049
mean anomaly at epoch: 185.2416°
orbit number at epoch: 13340

The dashed part of the orbit path shows where the satellite is in the earth's shadow,  

DLR